Location: Bannatyne
(13.0833°N, 59.5333°W)
Time: 14:59:17
(UTC+00:00)

deb Explorer IX - Pass Details

Date: 02 February 2020
Orbit: 549 x 1099 km, 38.8° (Epoch: 22 February)

Event Time Altitude Azimuth Distance (km) Brightness Sun altitude
Rises 05:02:45 0° 314° (NW) 3,885 - -77.1°
Reaches altitude 10° 05:05:34 10° 318° (NW) 2,942 - -76.4°
Maximum altitude 05:12:45 59° 37° (NE) 1,228 - -74.8°
Drops below altitude 10° 05:19:34 10° 115° (ESE) 2,798 - -73.2°
Sets 05:22:11 0° 119° (ESE) 3,685 - -72.6°
